| time (UTC) | temp C | wind direction | speed KPH | gust KPH | rain 1hr cm | rain 24hr cm | rain mn cm | humidity % | barometer mb |
| 20260510192703 | 19 | 343 | 4.8 | 14.5 | 0.00 | 0.00 | 0.00 | 42 | 1000.0 |
| 20260510192204 | 19 | 339 | 6.4 | 12.9 | 0.00 | 0.00 | 0.00 | 41 | 1000.0 |
| 20260510191704 | 20 | 32 | 4.8 | 11.3 | 0.00 | 0.00 | 0.00 | 37 | 1000.0 |
| 20260510191204 | 20 | 36 | 8.0 | 19.3 | 0.00 | 0.00 | 0.00 | 37 | 1000.0 |
| 20260510190703 | 20 | 28 | 6.4 | 14.5 | 0.00 | 0.00 | 0.00 | 37 | 1000.0 |
| 20260510190203 | 20 | 359 | 8.0 | 19.3 | 0.00 | 0.00 | 0.00 | 38 | 1000.0 |
| 20260510185704 | 20 | 5 | 8.0 | 16.1 | 0.00 | 0.00 | 0.00 | 37 | 1000.0 |
| 20260510185204 | 20 | 3 | 6.4 | 14.5 | 0.00 | 0.00 | 0.00 | 37 | 1000.0 |
| 20260510184704 | 20 | 5 | 8.0 | 14.5 | 0.00 | 0.00 | 0.00 | 37 | 1000.0 |
| 20260510184204 | 20 | 41 | 9.7 | 14.5 | 0.00 | 0.00 | 0.00 | 36 | 1000.0 |
| 20260510183704 | 20 | 10 | 9.7 | 16.1 | 0.00 | 0.00 | 0.00 | 33 | 1000.0 |
| 20260510183204 | 20 | 28 | 9.7 | 16.1 | 0.00 | 0.00 | 0.00 | 36 | 1000.0 |
| 20260510182703 | 20 | 0 | 9.7 | 19.3 | 0.00 | 0.00 | 0.00 | 35 | 1000.0 |
| 20260510182203 | 20 | 31 | 8.0 | 14.5 | 0.00 | 0.00 | 0.00 | 35 | 1000.0 |
| 20260510181703 | 20 | 5 | 9.7 | 19.3 | 0.00 | 0.00 | 0.00 | 34 | 1000.0 |
| 20260510181204 | 20 | 41 | 9.7 | 12.9 | 0.00 | 0.00 | 0.00 | 35 | 1000.0 |
| 20260510180703 | 20 | 23 | 9.7 | 20.9 | 0.00 | 0.00 | 0.00 | 35 | 1000.0 |
| 20260510175703 | 20 | 2 | 8.0 | 16.1 | 0.00 | 0.00 | 0.00 | 36 | 1000.0 |
| 20260510175204 | 20 | 1 | 8.0 | 20.9 | 0.00 | 0.00 | 0.00 | 38 | 1000.0 |
| 20260510174703 | 20 | 349 | 9.7 | 19.3 | 0.00 | 0.00 | 0.00 | 35 | 1000.0 |
| 20260510174204 | 20 | 30 | 8.0 | 16.1 | 0.00 | 0.00 | 0.00 | 36 | 1000.0 |
| 20260510173704 | 20 | 23 | 11.3 | 22.5 | 0.00 | 0.00 | 0.00 | 35 | 1000.0 |
| 20260510173204 | 20 | 13 | 9.7 | 16.1 | 0.00 | 0.00 | 0.00 | 35 | 1000.0 |
| 20260510172704 | 21 | 16 | 6.4 | 20.9 | 0.00 | 0.00 | 0.00 | 35 | 1000.0 |
| 20260510172204 | 20 | 358 | 9.7 | 20.9 | 0.00 | 0.00 | 0.00 | 35 | 1000.0 |
| 20260510171703 | 20 | 43 | 9.7 | 19.3 | 0.00 | 0.00 | 0.00 | 36 | 1000.0 |
| 20260510171203 | 20 | 7 | 9.7 | 16.1 | 0.00 | 0.00 | 0.00 | 37 | 1000.0 |
| 20260510170704 | 20 | 44 | 9.7 | 16.1 | 0.00 | 0.00 | 0.00 | 36 | 1000.0 |
| 20260510170204 | 20 | 47 | 3.2 | 14.5 | 0.00 | 0.00 | 0.00 | 38 | 1000.0 |
| 20260510165704 | 20 | 73 | 4.8 | 11.3 | 0.00 | 0.00 | 0.00 | 39 | 1000.0 |
| 20260510165203 | 20 | 14 | 8.0 | 16.1 | 0.00 | 0.00 | 0.00 | 38 | 1000.0 |
| 20260510164703 | 20 | 56 | 9.7 | 19.3 | 0.00 | 0.00 | 0.00 | 37 | 1000.0 |
| 20260510164203 | 20 | 25 | 11.3 | 20.9 | 0.00 | 0.00 | 0.00 | 37 | 1000.0 |
| 20260510163704 | 20 | 45 | 9.7 | 20.9 | 0.00 | 0.00 | 0.00 | 38 | 1000.0 |
| 20260510163204 | 20 | 22 | 9.7 | 22.5 | 0.00 | 0.00 | 0.00 | 37 | 1000.0 |
| 20260510162703 | 20 | 25 | 9.7 | 14.5 | 0.00 | 0.00 | 0.00 | 38 | 1000.0 |
| 20260510162204 | 20 | 5 | 8.0 | 14.5 | 0.00 | 0.00 | 0.00 | 38 | 1000.0 |
| 20260510161703 | 20 | 352 | 4.8 | 12.9 | 0.00 | 0.00 | 0.00 | 39 | 1000.0 |
| 20260510161203 | 20 | 15 | 6.4 | 16.1 | 0.00 | 0.00 | 0.00 | 40 | 1000.0 |
| 20260510160704 | 20 | 126 | 3.2 | 14.5 | 0.00 | 0.00 | 0.00 | 43 | 1000.0 |
| 20260510155703 | 18 | 40 | 9.7 | 19.3 | 0.00 | 0.00 | 0.00 | 43 | 1000.0 |
| 20260510154703 | 18 | 39 | 11.3 | 20.9 | 0.00 | 0.00 | 0.00 | 41 | 1000.0 |
| 20260510154203 | 18 | 16 | 11.3 | 16.1 | 0.00 | 0.00 | 0.00 | 42 | 1000.0 |
| 20260510153703 | 18 | 37 | 9.7 | 16.1 | 0.00 | 0.00 | 0.00 | 42 | 1000.0 |
| 20260510153204 | 18 | 37 | 9.7 | 14.5 | 0.00 | 0.00 | 0.00 | 43 | 1000.0 |
| 20260510152704 | 18 | 38 | 6.4 | 14.5 | 0.00 | 0.00 | 0.00 | 44 | 1000.0 |
| 20260510152204 | 18 | 24 | 9.7 | 14.5 | 0.00 | 0.00 | 0.00 | 44 | 1000.0 |
| 20260510151704 | 18 | 37 | 6.4 | 16.1 | 0.00 | 0.00 | 0.00 | 44 | 1000.0 |
| 20260510150704 | 18 | 32 | 6.4 | 20.9 | 0.00 | 0.00 | 0.00 | 45 | 1000.0 |
| 20260510145704 | 18 | 31 | 4.8 | 14.5 | 0.00 | 0.00 | 0.00 | 48 | 1000.0 |
| 20260510145204 | 17 | 10 | 8.0 | 14.5 | 0.00 | 0.00 | 0.00 | 48 | 1000.0 |
| 20260510144703 | 17 | 18 | 8.0 | 14.5 | 0.00 | 0.00 | 0.00 | 48 | 1000.0 |
| 20260510144203 | 17 | 20 | 9.7 | 19.3 | 0.00 | 0.00 | 0.00 | 46 | 1000.0 |
| 20260510143204 | 17 | 25 | 8.0 | 14.5 | 0.00 | 0.00 | 0.00 | 48 | 1000.0 |
| 20260510142703 | 17 | 26 | 8.0 | 16.1 | 0.00 | 0.00 | 0.00 | 47 | 1000.0 |
| 20260510142204 | 17 | 34 | 8.0 | 12.9 | 0.00 | 0.00 | 0.00 | 48 | 1000.0 |
| 20260510141704 | 17 | 11 | 8.0 | 14.5 | 0.00 | 0.00 | 0.00 | 48 | 1000.0 |
| 20260510141203 | 17 | 43 | 8.0 | 14.5 | 0.00 | 0.00 | 0.00 | 50 | 1000.0 |
| 20260510140203 | 16 | 28 | 9.7 | 14.5 | 0.00 | 0.00 | 0.00 | 50 | 1000.0 |
| 20260510135703 | 16 | 29 | 8.0 | 14.5 | 0.00 | 0.00 | 0.00 | 51 | 1000.0 |
| 20260510134704 | 17 | 27 | 8.0 | 14.5 | 0.00 | 0.00 | 0.00 | 52 | 1000.0 |
| 20260510134203 | 17 | 32 | 4.8 | 16.1 | 0.00 | 0.00 | 0.00 | 53 | 1000.0 |
| 20260510133704 | 17 | 14 | 8.0 | 16.1 | 0.00 | 0.00 | 0.00 | 52 | 1000.0 |
| 20260510133204 | 17 | 34 | 8.0 | 20.9 | 0.00 | 0.00 | 0.00 | 52 | 1000.0 |
| 20260510132704 | 16 | 26 | 9.7 | 19.3 | 0.00 | 0.00 | 0.00 | 52 | 1000.0 |
| 20260510132203 | 16 | 27 | 9.7 | 19.3 | 0.00 | 0.00 | 0.00 | 54 | 1000.0 |
| 20260510131704 | 16 | 56 | 4.8 | 19.3 | 0.00 | 0.00 | 0.00 | 54 | 1000.0 |
| 20260510130703 | 16 | 31 | 9.7 | 19.3 | 0.00 | 0.00 | 0.00 | 53 | 1000.0 |
| 20260510130204 | 16 | 34 | 11.3 | 20.9 | 0.00 | 0.00 | 0.00 | 53 | 1000.0 |
| 20260510125705 | 16 | 43 | 8.0 | 14.5 | 0.00 | 0.00 | 0.00 | 54 | 1000.0 |
| 20260510125203 | 16 | 40 | 6.4 | 14.5 | 0.00 | 0.00 | 0.00 | 56 | 1000.0 |
| 20260510124704 | 16 | 40 | 9.7 | 16.1 | 0.00 | 0.00 | 0.00 | 56 | 1000.0 |
| 20260510124203 | 16 | 13 | 9.7 | 19.3 | 0.00 | 0.00 | 0.00 | 56 | 1000.0 |
| 20260510123703 | 16 | 45 | 8.0 | 16.1 | 0.00 | 0.00 | 0.00 | 58 | 1000.0 |
| 20260510123203 | 16 | 20 | 8.0 | 14.5 | 0.00 | 0.00 | 0.00 | 58 | 1000.0 |
| 20260510122704 | 16 | 13 | 8.0 | 20.9 | 0.00 | 0.00 | 0.00 | 60 | 1000.0 |
| 20260510122203 | 16 | 18 | 4.8 | 14.5 | 0.00 | 0.00 | 0.00 | 61 | 1000.0 |
| 20260510121703 | 16 | 22 | 9.7 | 14.5 | 0.00 | 0.00 | 0.00 | 62 | 1000.0 |
| 20260510121204 | 16 | 26 | 9.7 | 19.3 | 0.00 | 0.00 | 0.00 | 61 | 1000.0 |
| 20260510120704 | 16 | 49 | 8.0 | 12.9 | 0.00 | 0.00 | 0.00 | 62 | 1000.0 |
| 20260510120204 | 16 | 46 | 4.8 | 14.5 | 0.00 | 0.00 | 0.00 | 62 | 1000.0 |
| 20260510115703 | 16 | 30 | 4.8 | 14.5 | 0.00 | 0.00 | 0.00 | 63 | 1000.0 |
| 20260510115203 | 16 | 26 | 6.4 | 12.9 | 0.00 | 0.00 | 0.00 | 63 | 1000.0 |
| 20260510114703 | 16 | 26 | 8.0 | 14.5 | 0.00 | 0.00 | 0.00 | 64 | 1000.0 |
| 20260510113704 | 16 | 35 | 6.4 | 16.1 | 0.00 | 0.00 | 0.00 | 64 | 1000.0 |
| 20260510113203 | 16 | 34 | 9.7 | 14.5 | 0.00 | 0.00 | 0.00 | 64 | 1000.0 |
| 20260510112703 | 16 | 19 | 8.0 | 16.1 | 0.00 | 0.00 | 0.00 | 65 | 1000.0 |
| 20260510112204 | 16 | 16 | 8.0 | 16.1 | 0.00 | 0.00 | 0.00 | 66 | 1000.0 |
| 20260510111703 | 16 | 23 | 8.0 | 14.5 | 0.00 | 0.00 | 0.00 | 67 | 1000.0 |
| 20260510111204 | 16 | 45 | 4.8 | 19.3 | 0.00 | 0.00 | 0.00 | 68 | 1000.0 |
| 20260510110704 | 16 | 29 | 9.7 | 12.9 | 0.00 | 0.00 | 0.00 | 69 | 1000.0 |
| 20260510110203 | 16 | 17 | 8.0 | 12.9 | 0.00 | 0.00 | 0.00 | 70 | 1000.0 |
| 20260510105704 | 16 | 22 | 9.7 | 19.3 | 0.00 | 0.00 | 0.00 | 70 | 1000.0 |
| 20260510105204 | 16 | 20 | 8.0 | 16.1 | 0.00 | 0.00 | 0.00 | 70 | 1000.0 |
| 20260510104703 | 16 | 7 | 6.4 | 19.3 | 0.00 | 0.00 | 0.00 | 72 | 1000.0 |
| 20260510104203 | 17 | 18 | 9.7 | 19.3 | 0.00 | 0.00 | 0.00 | 72 | 1000.0 |
| 20260510103704 | 17 | 48 | 3.2 | 11.3 | 0.00 | 0.00 | 0.00 | 72 | 1000.0 |
| 20260510103204 | 17 | 21 | 6.4 | 14.5 | 0.00 | 0.03 | 0.00 | 71 | 1000.0 |
| 20260510102704 | 17 | 13 | 9.7 | 19.3 | 0.00 | 0.03 | 0.00 | 70 | 1000.0 |
| 20260510101204 | 17 | 4 | 3.2 | 9.7 | 0.00 | 0.03 | 0.00 | 76 | 1000.0 |
| 20260510100704 | 17 | 342 | 6.4 | 11.3 | 0.00 | 0.03 | 0.00 | 77 | 1000.0 |
| 20260510100204 | 17 | 351 | 3.2 | 9.7 | 0.00 | 0.03 | 0.00 | 78 | 1000.0 |
| 20260510095704 | 17 | 353 | 3.2 | 8.0 | 0.00 | 0.03 | 0.00 | 78 | 1000.0 |
| 20260510095203 | 17 | 22 | 4.8 | 8.0 | 0.00 | 0.03 | 0.00 | 78 | 1000.0 |
| 20260510094703 | 17 | 12 | 3.2 | 4.8 | 0.00 | 0.03 | 0.00 | 79 | 1000.0 |
| 20260510094204 | 17 | 6 | 1.6 | 4.8 | 0.00 | 0.03 | 0.00 | 80 | 1000.0 |
| 20260510093704 | 17 | 5 | 1.6 | 4.8 | 0.00 | 0.03 | 0.00 | 81 | 1000.0 |
| 20260510093203 | 17 | 349 | 3.2 | 8.0 | 0.00 | 0.03 | 0.00 | 81 | 1000.0 |
| 20260510092703 | 17 | 16 | 3.2 | 4.8 | 0.00 | 0.03 | 0.00 | 81 | 1000.0 |
| 20260510092204 | 17 | 31 | 3.2 | 4.8 | 0.00 | 0.03 | 0.00 | 81 | 1000.0 |
| 20260510091703 | 17 | 16 | 1.6 | 4.8 | 0.00 | 0.03 | 0.00 | 80 | 1000.0 |
| 20260510091204 | 17 | 91 | 3.2 | 4.8 | 0.00 | 0.03 | 0.00 | 80 | 1000.0 |
| 20260510090704 | 17 | 51 | 1.6 | 4.8 | 0.00 | 0.03 | 0.00 | 79 | 1000.0 |
| 20260510090204 | 17 | 113 | 1.6 | 3.2 | 0.00 | 0.03 | 0.00 | 78 | 1000.0 |
| 20260510085703 | 17 | 72 | 0.0 | 1.6 | 0.00 | 0.03 | 0.00 | 78 | 1000.0 |
| 20260510085204 | 17 | 39 | 0.0 | 3.2 | 0.00 | 0.03 | 0.00 | 78 | 1000.0 |
| 20260510084704 | 18 | 57 | 0.0 | 8.0 | 0.00 | 0.03 | 0.00 | 78 | 1000.0 |
| 20260510084203 | 18 | 69 | 1.6 | 9.7 | 0.00 | 0.03 | 0.00 | 77 | 1000.0 |
| 20260510083703 | 18 | 79 | 3.2 | 8.0 | 0.00 | 0.03 | 0.00 | 76 | 1000.0 |
| 20260510083203 | 18 | 64 | 3.2 | 8.0 | 0.00 | 0.03 | 0.00 | 76 | 1000.0 |
| 20260510082204 | 18 | 40 | 3.2 | 8.0 | 0.00 | 0.03 | 0.00 | 75 | 1000.0 |
| 20260510081703 | 18 | 42 | 4.8 | 11.3 | 0.00 | 0.03 | 0.00 | 75 | 1000.0 |
| 20260510081204 | 18 | 46 | 3.2 | 9.7 | 0.00 | 0.03 | 0.00 | 75 | 1000.0 |
| 20260510080704 | 18 | 7 | 4.8 | 9.7 | 0.00 | 0.03 | 0.00 | 75 | 1000.0 |
| 20260510080203 | 18 | 27 | 6.4 | 12.9 | 0.00 | 0.03 | 0.00 | 74 | 1000.0 |
| 20260510075704 | 18 | 33 | 4.8 | 11.3 | 0.00 | 0.03 | 0.00 | 74 | 1000.0 |
| 20260510075204 | 18 | 26 | 4.8 | 12.9 | 0.00 | 0.03 | 0.00 | 74 | 1000.0 |
| 20260510074703 | 18 | 32 | 8.0 | 14.5 | 0.00 | 0.03 | 0.00 | 73 | 1000.0 |
| 20260510074204 | 18 | 25 | 6.4 | 11.3 | 0.00 | 0.03 | 0.00 | 73 | 1000.0 |
| 20260510073704 | 18 | 38 | 8.0 | 14.5 | 0.00 | 0.03 | 0.00 | 73 | 1000.0 |
| 20260510073203 | 18 | 29 | 8.0 | 12.9 | 0.00 | 0.03 | 0.00 | 72 | 1000.0 |
| 20260510072703 | 18 | 27 | 4.8 | 14.5 | 0.00 | 0.03 | 0.00 | 72 | 1000.0 |
| 20260510071704 | 18 | 29 | 8.0 | 11.3 | 0.00 | 0.03 | 0.00 | 72 | 1000.0 |
| 20260510071203 | 18 | 357 | 6.4 | 14.5 | 0.00 | 0.03 | 0.00 | 72 | 1000.0 |
| 20260510070704 | 18 | 25 | 9.7 | 16.1 | 0.00 | 0.03 | 0.00 | 72 | 1000.0 |
| 20260510070204 | 18 | 33 | 4.8 | 14.5 | 0.00 | 0.03 | 0.00 | 73 | 1000.0 |
| 20260510065703 | 18 | 9 | 3.2 | 11.3 | 0.00 | 0.03 | 0.00 | 73 | 1000.0 |
| 20260510065204 | 18 | 10 | 4.8 | 11.3 | 0.00 | 0.03 | 0.00 | 73 | 1000.0 |
| 20260510064203 | 18 | 30 | 8.0 | 14.5 | 0.00 | 0.03 | 0.00 | 73 | 1000.0 |
| 20260510063204 | 18 | 16 | 8.0 | 14.5 | 0.00 | 0.03 | 0.00 | 74 | 1000.0 |
| 20260510062704 | 19 | 12 | 6.4 | 12.9 | 0.00 | 0.03 | 0.00 | 74 | 1000.0 |
| 20260510062204 | 19 | 9 | 8.0 | 16.1 | 0.00 | 0.03 | 0.00 | 74 | 1000.0 |
| 20260510061704 | 19 | 357 | 8.0 | 14.5 | 0.00 | 0.03 | 0.00 | 73 | 1000.0 |
| 20260510061204 | 19 | 350 | 4.8 | 12.9 | 0.00 | 0.03 | 0.00 | 74 | 1000.0 |
| 20260510060704 | 19 | 354 | 8.0 | 14.5 | 0.00 | 0.03 | 0.00 | 74 | 1000.0 |
| 20260510060203 | 19 | 358 | 8.0 | 16.1 | 0.00 | 0.03 | 0.00 | 72 | 1000.0 |
| 20260510055704 | 19 | 351 | 4.8 | 11.3 | 0.00 | 0.03 | 0.00 | 72 | 1000.0 |
| 20260510055204 | 20 | 351 | 4.8 | 12.9 | 0.00 | 0.03 | 0.00 | 71 | 1000.0 |
| 20260510054704 | 20 | 0 | 4.8 | 14.5 | 0.00 | 0.03 | 0.00 | 70 | 1000.0 |
| 20260510054204 | 20 | 348 | 8.0 | 14.5 | 0.00 | 0.03 | 0.00 | 68 | 1000.0 |
| 20260510053703 | 20 | 329 | 4.8 | 9.7 | 0.00 | 0.03 | 0.00 | 67 | 1000.0 |
| 20260510053203 | 20 | 328 | 3.2 | 8.0 | 0.00 | 0.03 | 0.00 | 68 | 1000.0 |
| 20260510052704 | 20 | 322 | 1.6 | 4.8 | 0.00 | 0.03 | 0.00 | 68 | 1000.0 |
| 20260510051203 | 20 | 294 | 1.6 | 3.2 | 0.00 | 0.03 | 0.00 | 65 | 1000.0 |
| 20260510050704 | 20 | 316 | 1.6 | 3.2 | 0.00 | 0.03 | 0.00 | 65 | 1000.0 |
| 20260510050204 | 21 | 283 | 3.2 | 4.8 | 0.00 | 0.03 | 0.00 | 64 | 1000.0 |
| 20260510045704 | 21 | 297 | 3.2 | 4.8 | 0.00 | 0.03 | 0.03 | 63 | 1000.0 |
| 20260510045203 | 21 | 283 | 3.2 | 3.2 | 0.00 | 0.03 | 0.03 | 61 | 1000.0 |
| 20260510044703 | 21 | 278 | 3.2 | 4.8 | 0.00 | 0.03 | 0.03 | 59 | 1000.0 |
| 20260510043704 | 21 | 48 | 0.0 | 0.0 | 0.00 | 0.03 | 0.03 | 58 | 1000.0 |
| 20260510042703 | 21 | 48 | 0.0 | 0.0 | 0.00 | 0.03 | 0.03 | 57 | 1000.0 |
| 20260510042204 | 21 | 48 | 0.0 | 0.0 | 0.00 | 0.03 | 0.03 | 57 | 1000.0 |
| 20260510041704 | 21 | 48 | 0.0 | 0.0 | 0.00 | 0.03 | 0.03 | 58 | 1000.0 |
| 20260510041203 | 21 | 48 | 0.0 | 0.0 | 0.00 | 0.03 | 0.03 | 58 | 1000.0 |
| 20260510040703 | 21 | 48 | 0.0 | 0.0 | 0.00 | 0.03 | 0.03 | 58 | 1000.0 |
| 20260510040203 | 22 | 47 | 1.6 | 4.8 | 0.00 | 0.03 | 0.03 | 56 | 1000.0 |
| 20260510035703 | 22 | 5 | 1.6 | 4.8 | 0.00 | 0.03 | 0.03 | 56 | 1000.0 |
| 20260510035204 | 22 | 7 | 1.6 | 3.2 | 0.00 | 0.03 | 0.03 | 56 | 1000.0 |
| 20260510034204 | 22 | 335 | 0.0 | 1.6 | 0.00 | 0.03 | 0.03 | 56 | 1000.0 |
| 20260510033704 | 22 | 358 | 1.6 | 4.8 | 0.00 | 0.03 | 0.03 | 55 | 1000.0 |
| 20260510033204 | 22 | 0 | 1.6 | 8.0 | 0.00 | 0.03 | 0.03 | 55 | 1000.0 |
| 20260510032703 | 22 | 10 | 3.2 | 4.8 | 0.00 | 0.03 | 0.03 | 54 | 1000.0 |
| 20260510032204 | 22 | 341 | 4.8 | 11.3 | 0.00 | 0.03 | 0.03 | 54 | 1000.0 |
| 20260510031204 | 22 | 355 | 6.4 | 12.9 | 0.00 | 0.03 | 0.03 | 55 | 1000.0 |
| 20260510025204 | 22 | 328 | 8.0 | 14.5 | 0.00 | 0.03 | 0.03 | 56 | 1000.0 |
| 20260510024704 | 22 | 313 | 12.9 | 27.4 | 0.00 | 0.03 | 0.03 | 57 | 1000.0 |
| 20260510024204 | 22 | 306 | 11.3 | 20.9 | 0.00 | 0.05 | 0.03 | 55 | 1000.0 |
| 20260510023703 | 23 | 351 | 11.3 | 24.1 | 0.00 | 0.10 | 0.03 | 50 | 1000.0 |
| 20260510023204 | 23 | 238 | 9.7 | 14.5 | 0.00 | 0.13 | 0.03 | 48 | 1000.0 |
| 20260510022704 | 23 | 223 | 11.3 | 16.1 | 0.00 | 0.15 | 0.03 | 46 | 1000.0 |
| 20260510022204 | 23 | 224 | 12.9 | 16.1 | 0.00 | 0.15 | 0.03 | 46 | 1000.0 |
| 20260510021704 | 23 | 222 | 12.9 | 16.1 | 0.00 | 0.18 | 0.03 | 46 | 1000.0 |
| 20260510021203 | 23 | 221 | 12.9 | 16.1 | 0.00 | 0.20 | 0.03 | 46 | 1000.0 |
| 20260510020203 | 23 | 217 | 12.9 | 14.5 | 0.00 | 0.23 | 0.03 | 44 | 1000.0 |
| 20260510015704 | 24 | 213 | 12.9 | 16.1 | 0.00 | 0.28 | 0.03 | 44 | 1000.0 |
| 20260510015203 | 24 | 215 | 11.3 | 14.5 | 0.00 | 0.30 | 0.03 | 44 | 1000.0 |
| 20260510014704 | 24 | 219 | 11.3 | 12.9 | 0.00 | 0.33 | 0.03 | 44 | 1000.0 |
| 20260510014203 | 24 | 215 | 11.3 | 14.5 | 0.00 | 0.36 | 0.03 | 44 | 1000.0 |
| 20260510013704 | 24 | 214 | 11.3 | 14.5 | 0.00 | 0.36 | 0.03 | 43 | 1000.0 |
| 20260510012704 | 24 | 212 | 9.7 | 12.9 | 0.00 | 0.46 | 0.03 | 44 | 1000.0 |
| 20260510012204 | 24 | 208 | 11.3 | 14.5 | 0.00 | 0.48 | 0.03 | 44 | 1000.0 |
| 20260510011703 | 25 | 214 | 8.0 | 11.3 | 0.00 | 0.53 | 0.03 | 44 | 1000.0 |
| 20260510011203 | 25 | 210 | 9.7 | 11.3 | 0.00 | 0.69 | 0.03 | 44 | 1000.0 |
| 20260510010703 | 25 | 213 | 8.0 | 11.3 | 0.00 | 0.74 | 0.03 | 44 | 1000.0 |
| 20260510010203 | 25 | 213 | 9.7 | 11.3 | 0.00 | 0.76 | 0.03 | 43 | 1000.0 |
| 20260510005704 | 25 | 215 | 8.0 | 11.3 | 0.00 | 0.79 | 0.03 | 43 | 1000.0 |
| 20260510005206 | 25 | 220 | 6.4 | 9.7 | 0.00 | 0.84 | 0.03 | 43 | 1000.0 |
| 20260510004704 | 26 | 228 | 4.8 | 9.7 | 0.00 | 0.89 | 0.03 | 43 | 1000.0 |
| 20260510004204 | 26 | 212 | 4.8 | 9.7 | 0.00 | 0.94 | 0.03 | 42 | 1000.0 |
| 20260510003704 | 26 | 212 | 6.4 | 9.7 | 0.00 | 0.94 | 0.03 | 42 | 1000.0 |
| 20260510002704 | 26 | 225 | 6.4 | 11.3 | 0.00 | 0.94 | 0.03 | 41 | 1000.0 |
| 20260510002203 | 26 | 223 | 6.4 | 11.3 | 0.00 | 0.94 | 0.03 | 39 | 1000.0 |
| 20260510001703 | 26 | 225 | 8.0 | 9.7 | 0.00 | 0.94 | 0.03 | 38 | 1000.0 |
| 20260510001204 | 26 | 248 | 8.0 | 11.3 | 0.00 | 0.94 | 0.03 | 38 | 1000.0 |
| 20260510000704 | 26 | 237 | 4.8 | 9.7 | 0.00 | 0.94 | 0.03 | 39 | 1000.0 |
| 20260510000204 | 26 | 233 | 6.4 | 9.7 | 0.00 | 0.94 | 0.03 | 38 | 1000.0 |
| 20260509235203 | 27 | 243 | 4.8 | 11.3 | 0.00 | 0.94 | 0.03 | 37 | 1000.0 |
| 20260509234704 | 27 | 241 | 3.2 | 9.7 | 0.00 | 0.94 | 0.03 | 36 | 1000.0 |
| 20260509234204 | 27 | 234 | 3.2 | 12.9 | 0.00 | 0.94 | 0.03 | 36 | 1000.0 |
| 20260509233703 | 27 | 243 | 8.0 | 12.9 | 0.00 | 0.94 | 0.03 | 35 | 1000.0 |
| 20260509232704 | 27 | 243 | 8.0 | 11.3 | 0.00 | 0.94 | 0.03 | 36 | 1000.0 |
| 20260509232204 | 27 | 227 | 9.7 | 14.5 | 0.00 | 0.94 | 0.03 | 34 | 1000.0 |
| 20260509231704 | 27 | 270 | 6.4 | 14.5 | 0.00 | 0.94 | 0.03 | 35 | 1000.0 |
| 20260509231203 | 27 | 245 | 8.0 | 14.5 | 0.00 | 0.94 | 0.03 | 33 | 1000.0 |
| 20260509230704 | 28 | 227 | 6.4 | 12.9 | 0.00 | 0.94 | 0.03 | 35 | 1000.0 |
| 20260509230204 | 28 | 242 | 4.8 | 9.7 | 0.00 | 0.94 | 0.03 | 35 | 1000.0 |
| 20260509225704 | 27 | 237 | 8.0 | 12.9 | 0.00 | 0.94 | 0.03 | 33 | 1000.0 |
| 20260509224704 | 28 | 240 | 3.2 | 11.3 | 0.00 | 0.94 | 0.03 | 36 | 1000.0 |
| 20260509224225 | 27 | 254 | 8.0 | 12.9 | 0.00 | 0.97 | 0.03 | 35 | 1000.0 |
| 20260509223204 | 28 | 257 | 8.0 | 12.9 | 0.00 | 0.97 | 0.03 | 32 | 1000.0 |
| 20260509222703 | 28 | 279 | 8.0 | 14.5 | 0.00 | 0.99 | 0.03 | 32 | 1000.0 |
| 20260509222204 | 28 | 259 | 4.8 | 11.3 | 0.00 | 1.04 | 0.03 | 33 | 1000.0 |
| 20260509221703 | 28 | 235 | 9.7 | 12.9 | 0.00 | 1.07 | 0.03 | 31 | 1000.0 |
| 20260509221204 | 29 | 293 | 8.0 | 11.3 | 0.00 | 1.09 | 0.03 | 30 | 1000.0 |
| 20260509220704 | 28 | 304 | 4.8 | 16.1 | 0.00 | 1.12 | 0.03 | 30 | 1000.0 |
| 20260509220203 | 28 | 295 | 8.0 | 14.5 | 0.00 | 1.12 | 0.03 | 29 | 1000.0 |
| 20260509215703 | 28 | 272 | 6.4 | 12.9 | 0.00 | 1.12 | 0.03 | 30 | 1000.0 |
| 20260509215204 | 28 | 280 | 8.0 | 12.9 | 0.00 | 1.12 | 0.03 | 30 | 1000.0 |
| 20260509214703 | 28 | 280 | 11.3 | 20.9 | 0.00 | 1.12 | 0.03 | 31 | 1000.0 |
| 20260509214204 | 28 | 262 | 6.4 | 12.9 | 0.00 | 1.12 | 0.03 | 34 | 1000.0 |
| 20260509213704 | 28 | 292 | 8.0 | 12.9 | 0.00 | 1.12 | 0.03 | 32 | 1000.0 |
| 20260509213204 | 28 | 286 | 6.4 | 20.9 | 0.00 | 1.12 | 0.03 | 32 | 1000.0 |
| 20260509212703 | 28 | 303 | 11.3 | 16.1 | 0.00 | 1.12 | 0.03 | 32 | 1000.0 |
| 20260509212204 | 28 | 276 | 8.0 | 20.9 | 0.00 | 1.12 | 0.03 | 32 | 1000.0 |
| 20260509211703 | 28 | 284 | 8.0 | 14.5 | 0.00 | 1.12 | 0.03 | 31 | 1000.0 |
| 20260509211204 | 28 | 257 | 8.0 | 12.9 | 0.00 | 1.12 | 0.03 | 32 | 1000.0 |
| 20260509210704 | 28 | 267 | 4.8 | 14.5 | 0.00 | 1.12 | 0.03 | 36 | 1000.0 |
| 20260509210204 | 28 | 264 | 8.0 | 14.5 | 0.00 | 1.12 | 0.03 | 33 | 1000.0 |
| 20260509205703 | 28 | 282 | 8.0 | 14.5 | 0.00 | 1.12 | 0.03 | 34 | 1000.0 |
| 20260509205203 | 28 | 250 | 8.0 | 16.1 | 0.00 | 1.12 | 0.03 | 34 | 1000.0 |
| 20260509204203 | 28 | 254 | 6.4 | 16.1 | 0.00 | 1.12 | 0.03 | 33 | 1000.0 |
| 20260509203703 | 28 | 306 | 8.0 | 12.9 | 0.00 | 1.12 | 0.03 | 35 | 1000.0 |
| 20260509203204 | 28 | 281 | 4.8 | 14.5 | 0.00 | 1.12 | 0.03 | 37 | 1000.0 |
| 20260509202704 | 28 | 262 | 8.0 | 16.1 | 0.00 | 1.12 | 0.03 | 36 | 1000.0 |
| 20260509202204 | 28 | 227 | 9.7 | 14.5 | 0.00 | 1.12 | 0.03 | 36 | 1000.0 |
| 20260509201704 | 28 | 249 | 4.8 | 14.5 | 0.00 | 1.12 | 0.03 | 36 | 1000.0 |
| 20260509201204 | 28 | 309 | 8.0 | 14.5 | 0.00 | 1.12 | 0.03 | 34 | 1000.0 |
| 20260509200704 | 27 | 254 | 4.8 | 12.9 | 0.00 | 1.12 | 0.03 | 38 | 1000.0 |
| 20260509200204 | 27 | 310 | 9.7 | 14.5 | 0.00 | 1.12 | 0.03 | 37 | 1000.0 |
| 20260509195704 | 27 | 290 | 8.0 | 12.9 | 0.00 | 1.12 | 0.03 | 38 | 1000.0 |
| 20260509195203 | 27 | 246 | 8.0 | 14.5 | 0.00 | 1.12 | 0.03 | 40 | 1000.0 |
| 20260509194703 | 27 | 259 | 6.4 | 14.5 | 0.00 | 1.12 | 0.03 | 38 | 1000.0 |
| 20260509194204 | 27 | 310 | 6.4 | 19.3 | 0.00 | 1.12 | 0.03 | 39 | 1000.0 |
| 20260509193703 | 27 | 320 | 9.7 | 20.9 | 0.00 | 1.12 | 0.03 | 40 | 1000.0 |
| 20260509193203 | 27 | 299 | 9.7 | 19.3 | 0.00 | 1.12 | 0.03 | 39 | 1000.0 |